Location: Grange Verzio
(44.5000°N, 6.9833°E)
Time: 06:21:35
(UTC+00:00)

ATLAS CENTAUR R/B - Pass Details

Date: 01 February 2023
Orbit: 450 x 653 km, 64.7° (Epoch: 19 March)

Event Time Altitude Azimuth Distance (km) Brightness Sun altitude
Rises 17:20:26 0° 225° (SW) 2,980 6.3 -7.5°
Reaches altitude 10° 17:22:48 10° 229° (SW) 2,066 5.5 -7.9°
Maximum altitude 17:27:26 58° 308° (NW) 758 2.2 -8.7°
Drops below altitude 10° 17:31:57 10° 28° (NNE) 2,006 3.8 -9.5°
Enters shadow 17:33:15 - 31° (NNE) 2,507 4.3 -9.7°
